Time,TemperatureF,DewpointF,PressureIn,WindDirection,WindDirectionDegrees,WindSpeedMPH,WindSpeedGustMPH,Humidity,HourlyPrecipIn,Conditions,Clouds,dailyrainin,SoftwareType,DateUTC
2013-03-09 00:08:00,44.7,43.0,30.23,SSW,195,0.0,-999.0,95,-99.99,,,0.00,weatherlink.com 1.10,2013-03-09 05:08:00,
2013-03-09 00:28:00,44.7,43.0,30.23,SSW,195,0.0,-999.0,95,-99.99,,,0.00,weatherlink.com 1.10,2013-03-09 05:28:00,
2013-03-09 00:38:00,44.4,43.0,30.23,SSW,195,0.0,-999.0,95,-99.99,,,0.00,weatherlink.com 1.10,2013-03-09 05:38:00,
2013-03-09 00:53:00,44.1,43.0,30.23,SSW,195,0.0,-999.0,95,-99.99,,,0.00,weatherlink.com 1.10,2013-03-09 05:53:00,
2013-03-09 01:08:00,43.7,42.0,30.23,SSW,195,0.0,-999.0,95,-99.99,,,0.00,weatherlink.com 1.10,2013-03-09 06:08:00,
2013-03-09 01:23:00,43.4,42.0,30.22,SSW,195,0.0,-999.0,95,-99.99,,,0.00,weatherlink.com 1.10,2013-03-09 06:23:00,
2013-03-09 01:38:00,43.3,42.0,30.22,SSW,195,0.0,-999.0,96,-99.99,,,0.00,weatherlink.com 1.10,2013-03-09 06:38:00,
2013-03-09 01:53:00,43.2,42.0,30.21,SSW,195,0.0,-999.0,96,-99.99,,,0.00,weatherlink.com 1.10,2013-03-09 06:53:00,
2013-03-09 02:08:00,43.5,43.0,30.21,SSW,195,0.0,-999.0,96,-99.99,,,0.00,weatherlink.com 1.10,2013-03-09 07:08:00,
2013-03-09 02:15:00,43.7,42.6,30.22,SSW,195,0.0,0.0,96,0.00,,,0.00,Wunderground v.1.15,2013-03-09 07:15:00,
2013-03-09 02:20:00,43.7,42.6,30.22,SSW,195,0.0,0.0,96,0.00,,,0.00,Wunderground v.1.15,2013-03-09 07:20:00,
2013-03-09 02:30:00,43.6,42.5,30.22,SSW,195,0.0,0.0,96,0.00,,,0.00,Wunderground v.1.15,2013-03-09 07:30:00,
2013-03-09 02:38:00,43.3,42.0,30.21,SSW,195,0.0,-999.0,96,-99.99,,,0.00,weatherlink.com 1.10,2013-03-09 07:38:00,
2013-03-09 02:45:00,43.2,42.1,30.21,SSW,195,0.0,0.0,96,0.00,,,0.00,Wunderground v.1.15,2013-03-09 07:45:00,
2013-03-09 02:53:00,43.0,42.0,30.21,SSW,195,0.0,-999.0,96,-99.99,,,0.00,weatherlink.com 1.10,2013-03-09 07:53:00,
2013-03-09 03:00:00,43.0,41.9,30.20,SSW,195,0.0,0.0,96,0.00,,,0.00,Wunderground v.1.15,2013-03-09 08:00:00,
2013-03-09 03:05:00,42.9,41.8,30.20,SSW,195,0.0,0.0,96,0.00,,,0.00,Wunderground v.1.15,2013-03-09 08:05:00,
2013-03-09 03:15:00,42.7,41.6,30.20,SSW,195,0.0,0.0,96,0.00,,,0.00,Wunderground v.1.15,2013-03-09 08:15:00,
2013-03-09 03:23:00,42.5,42.0,30.19,SSW,195,0.0,-999.0,96,-99.99,,,0.00,weatherlink.com 1.10,2013-03-09 08:23:00,
2013-03-09 03:30:00,42.6,41.5,30.19,SSW,195,0.0,0.0,96,0.00,,,0.00,Wunderground v.1.15,2013-03-09 08:30:00,
2013-03-09 03:39:00,42.7,42.0,30.18,SSW,195,0.0,-999.0,96,-99.99,,,0.00,weatherlink.com 1.10,2013-03-09 08:39:00,
2013-03-09 03:45:00,42.8,41.7,30.19,SSW,195,0.0,0.0,96,0.00,,,0.00,Wunderground v.1.15,2013-03-09 08:45:00,
2013-03-09 03:54:00,42.7,42.0,30.18,SSW,195,0.0,-999.0,96,-99.99,,,0.00,weatherlink.com 1.10,2013-03-09 08:54:00,
2013-03-09 04:00:00,42.9,41.8,30.18,SSW,195,0.0,0.0,96,0.00,,,0.00,Wunderground v.1.15,2013-03-09 09:00:00,
2013-03-09 04:05:00,42.9,41.8,30.18,SSW,195,0.0,0.0,96,0.00,,,0.00,Wunderground v.1.15,2013-03-09 09:05:00,
2013-03-09 04:15:00,43.0,41.9,30.18,SSW,195,0.0,0.0,96,0.00,,,0.00,Wunderground v.1.15,2013-03-09 09:15:00,
2013-03-09 04:25:00,43.1,42.0,30.18,SSW,195,0.0,0.0,96,0.00,,,0.00,Wunderground v.1.15,2013-03-09 09:25:00,
2013-03-09 04:30:00,43.2,42.1,30.18,SSW,195,0.0,0.0,96,0.00,,,0.00,Wunderground v.1.15,2013-03-09 09:30:00,
2013-03-09 04:39:00,43.3,42.0,30.17,SSW,195,0.0,-999.0,96,-99.99,,,0.00,weatherlink.com 1.10,2013-03-09 09:39:00,
2013-03-09 04:45:00,43.5,42.4,30.18,SSW,195,0.0,0.0,96,0.00,,,0.00,Wunderground v.1.15,2013-03-09 09:45:00,
2013-03-09 04:50:00,43.6,42.5,30.18,SSW,195,0.0,0.0,96,0.00,,,0.00,Wunderground v.1.15,2013-03-09 09:50:00,
2013-03-09 05:00:00,43.8,42.7,30.18,SSW,195,0.0,0.0,96,0.00,,,0.00,Wunderground v.1.15,2013-03-09 10:00:00,
2013-03-09 05:09:00,43.9,43.0,30.18,SSW,198,0.0,-999.0,96,-99.99,,,0.00,weatherlink.com 1.10,2013-03-09 10:09:00,
2013-03-09 05:15:00,44.1,43.0,30.19,SSW,203,0.0,0.0,96,0.00,,,0.00,Wunderground v.1.15,2013-03-09 10:15:00,
2013-03-09 05:25:00,44.2,43.1,30.19,SSW,204,0.0,0.0,96,0.00,,,0.00,Wunderground v.1.15,2013-03-09 10:25:00,
2013-03-09 05:30:00,44.3,43.2,30.19,SSW,204,0.0,0.0,96,0.00,,,0.00,Wunderground v.1.15,2013-03-09 10:30:00,
2013-03-09 05:38:00,44.2,43.0,30.19,SSW,203,0.0,-999.0,96,-99.99,,,0.00,weatherlink.com 1.10,2013-03-09 10:38:00,
2013-03-09 05:45:00,44.2,43.1,30.20,SSW,204,0.0,0.0,96,0.00,,,0.00,Wunderground v.1.15,2013-03-09 10:45:00,
2013-03-09 05:50:00,44.1,43.0,30.20,SSW,204,0.0,0.0,96,0.00,,,0.00,Wunderground v.1.15,2013-03-09 10:50:00,
2013-03-09 06:00:00,44.0,42.9,30.20,SSW,204,0.0,0.0,96,0.00,,,0.00,Wunderground v.1.15,2013-03-09 11:00:00,
2013-03-09 06:08:00,43.6,42.0,30.20,SSW,205,0.0,-999.0,95,-99.99,,,0.00,weatherlink.com 1.10,2013-03-09 11:08:00,
2013-03-09 06:15:00,43.6,42.3,30.20,SSW,205,0.0,0.0,95,0.00,,,0.00,Wunderground v.1.15,2013-03-09 11:15:00,
2013-03-09 06:23:00,43.3,42.0,30.20,SSW,205,0.0,-999.0,95,-99.99,,,0.00,weatherlink.com 1.10,2013-03-09 11:23:00,
2013-03-09 06:30:00,43.2,41.9,30.20,SSW,206,0.0,0.0,95,0.00,,,0.00,Wunderground v.1.15,2013-03-09 11:30:00,
2013-03-09 06:39:00,43.1,42.0,30.20,West,273,0.0,-999.0,95,-99.99,,,0.00,weatherlink.com 1.10,2013-03-09 11:39:00,
2013-03-09 06:45:00,43.3,42.0,30.20,West,277,0.0,0.0,95,0.00,,,0.00,Wunderground v.1.15,2013-03-09 11:45:00,
2013-03-09 06:54:00,43.5,42.2,30.20,West,259,0.0,0.0,95,0.00,,,0.00,Wunderground v.1.15,2013-03-09 11:54:00,
2013-03-09 06:59:00,43.7,42.4,30.20,West,260,0.0,1.0,95,0.00,,,0.00,Wunderground v.1.15,2013-03-09 11:59:00,
2013-03-09 07:04:00,43.9,42.8,30.20,West,260,0.0,0.0,96,0.00,,,0.00,Wunderground v.1.15,2013-03-09 12:04:00,
2013-03-09 07:09:00,44.0,43.0,30.20,WSW,256,0.0,-999.0,96,-99.99,,,0.00,weatherlink.com 1.10,2013-03-09 12:09:00,
2013-03-09 07:14:00,44.4,43.3,30.20,WSW,240,0.0,0.0,96,0.00,,,0.00,Wunderground v.1.15,2013-03-09 12:14:00,
2013-03-09 07:19:00,44.7,43.6,30.20,WSW,258,0.0,1.0,96,0.00,,,0.00,Wunderground v.1.15,2013-03-09 12:19:00,
2013-03-09 07:24:00,45.1,44.0,30.21,West,277,0.0,1.0,96,0.00,,,0.00,Wunderground v.1.15,2013-03-09 12:24:00,
2013-03-09 07:29:00,45.7,44.4,30.21,WSW,255,0.0,1.0,95,0.00,,,0.00,Wunderground v.1.15,2013-03-09 12:29:00,
2013-03-09 07:34:00,46.2,44.8,30.21,West,273,0.0,0.0,95,0.00,,,0.00,Wunderground v.1.15,2013-03-09 12:34:00,
2013-03-09 07:39:00,46.9,45.5,30.21,North,356,0.0,1.0,95,0.00,,,0.00,Wunderground v.1.15,2013-03-09 12:39:00,
2013-03-09 07:44:00,47.7,46.3,30.22,NW,323,0.0,0.0,95,0.00,,,0.00,Wunderground v.1.15,2013-03-09 12:44:00,
2013-03-09 07:49:00,48.7,47.3,30.22,NW,323,0.0,0.0,95,0.00,,,0.00,Wunderground v.1.15,2013-03-09 12:49:00,
2013-03-09 07:54:00,50.3,47.5,30.23,NNW,340,0.0,5.0,90,0.00,,,0.00,Wunderground v.1.15,2013-03-09 12:54:00,
2013-03-09 07:59:00,52.0,47.9,30.23,ENE,70,1.0,5.0,86,0.00,,,0.00,Wunderground v.1.15,2013-03-09 12:59:00,
2013-03-09 08:04:00,53.7,49.6,30.23,West,269,0.0,2.0,86,0.00,,,0.00,Wunderground v.1.15,2013-03-09 13:04:00,
2013-03-09 08:09:00,55.0,48.6,30.23,East,84,1.0,3.0,79,0.00,,,0.00,Wunderground v.1.15,2013-03-09 13:09:00,
2013-03-09 08:14:00,55.8,49.0,30.24,SSE,160,1.0,2.0,78,0.00,,,0.00,Wunderground v.1.15,2013-03-09 13:14:00,
2013-03-09 08:19:00,56.7,48.9,30.24,ESE,122,2.0,4.0,75,0.00,,,0.00,Wunderground v.1.15,2013-03-09 13:19:00,
2013-03-09 08:24:00,58.2,48.8,30.24,NE,54,0.0,3.0,71,0.00,,,0.00,Wunderground v.1.15,2013-03-09 13:24:00,
2013-03-09 08:29:00,59.1,50.5,30.24,WSW,245,0.0,3.0,73,0.00,,,0.00,Wunderground v.1.15,2013-03-09 13:29:00,
2013-03-09 08:34:00,60.2,48.4,30.25,ESE,114,0.0,5.0,65,0.00,,,0.00,Wunderground v.1.15,2013-03-09 13:34:00,
2013-03-09 08:39:00,61.0,48.7,30.25,SE,124,2.0,6.0,64,0.00,,,0.00,Wunderground v.1.15,2013-03-09 13:39:00,
2013-03-09 08:44:00,61.3,48.2,30.25,SE,136,0.0,7.0,62,0.00,,,0.00,Wunderground v.1.15,2013-03-09 13:44:00,
2013-03-09 08:49:00,61.9,47.9,30.26,NE,40,0.0,8.0,60,0.00,,,0.00,Wunderground v.1.15,2013-03-09 13:49:00,
2013-03-09 08:54:00,62.6,48.5,30.25,NNW,327,0.0,6.0,60,0.00,,,0.00,Wunderground v.1.15,2013-03-09 13:54:00,
2013-03-09 08:59:00,63.2,47.2,30.26,ESE,120,1.0,6.0,56,0.00,,,0.00,Wunderground v.1.15,2013-03-09 13:59:00,
2013-03-09 09:04:00,63.3,48.7,30.25,WNW,283,0.0,4.0,59,0.00,,,0.00,Wunderground v.1.15,2013-03-09 14:04:00,
2013-03-09 09:09:00,63.6,48.1,30.25,East,84,0.0,5.0,57,0.00,,,0.00,Wunderground v.1.15,2013-03-09 14:09:00,
2013-03-09 09:14:00,64.0,48.0,30.25,ESE,118,0.0,5.0,56,0.00,,,0.00,Wunderground v.1.15,2013-03-09 14:14:00,
2013-03-09 09:19:00,65.0,47.9,30.26,SE,141,0.0,5.0,54,0.00,,,0.00,Wunderground v.1.15,2013-03-09 14:19:00,
2013-03-09 09:25:00,64.9,48.8,30.26,SSE,157,2.0,6.0,56,0.00,,,0.00,Wunderground v.1.15,2013-03-09 14:25:00,
2013-03-09 09:30:00,64.4,46.9,30.26,ESE,107,1.0,8.0,53,0.00,,,0.00,Wunderground v.1.15,2013-03-09 14:30:00,
2013-03-09 09:35:00,64.7,48.6,30.26,West,266,0.0,4.0,56,0.00,,,0.00,Wunderground v.1.15,2013-03-09 14:35:00,
2013-03-09 09:40:00,64.7,48.2,30.26,SE,124,5.0,5.0,55,0.00,,,0.00,Wunderground v.1.15,2013-03-09 14:40:00,
2013-03-09 09:45:00,65.0,48.9,30.26,NW,311,0.0,5.0,56,0.00,,,0.00,Wunderground v.1.15,2013-03-09 14:45:00,
2013-03-09 09:50:00,65.1,49.0,30.26,NW,321,0.0,2.0,56,0.00,,,0.00,Wunderground v.1.15,2013-03-09 14:50:00,
2013-03-09 09:55:00,65.4,48.3,30.26,SSE,151,3.0,5.0,54,0.00,,,0.00,Wunderground v.1.15,2013-03-09 14:55:00,
2013-03-09 10:00:00,64.9,48.8,30.26,SSE,149,1.0,2.0,56,0.00,,,0.00,Wunderground v.1.15,2013-03-09 15:00:00,
2013-03-09 10:05:00,64.8,48.2,30.27,East,95,1.0,7.0,55,0.00,,,0.00,Wunderground v.1.15,2013-03-09 15:05:00,
2013-03-09 10:10:00,65.5,49.4,30.27,South,174,1.0,2.0,56,0.00,,,0.00,Wunderground v.1.15,2013-03-09 15:10:00,
2013-03-09 10:15:00,66.0,49.4,30.27,West,266,2.0,3.0,55,0.00,,,0.00,Wunderground v.1.15,2013-03-09 15:15:00,
2013-03-09 10:20:00,66.1,49.9,30.27,East,79,5.0,5.0,56,0.00,,,0.00,Wunderground v.1.15,2013-03-09 15:20:00,
2013-03-09 10:25:00,65.4,48.8,30.27,ENE,66,2.0,8.0,55,0.00,,,0.00,Wunderground v.1.15,2013-03-09 15:25:00,
2013-03-09 10:30:00,65.8,49.7,30.27,SW,221,0.0,2.0,56,0.00,,,0.00,Wunderground v.1.15,2013-03-09 15:30:00,
2013-03-09 10:35:00,66.9,50.7,30.28,SSE,157,0.0,3.0,56,0.00,,,0.00,Wunderground v.1.15,2013-03-09 15:35:00,
2013-03-09 10:40:00,67.2,51.4,30.27,NNW,328,1.0,4.0,57,0.00,,,0.00,Wunderground v.1.15,2013-03-09 15:40:00,
2013-03-09 10:45:00,67.3,50.6,30.27,SE,143,1.0,4.0,55,0.00,,,0.00,Wunderground v.1.15,2013-03-09 15:45:00,
2013-03-09 10:50:00,66.4,48.2,30.27,East,99,1.0,6.0,52,0.00,,,0.00,Wunderground v.1.15,2013-03-09 15:50:00,
2013-03-09 10:55:00,66.7,49.5,30.28,South,186,3.0,6.0,54,0.00,,,0.00,Wunderground v.1.15,2013-03-09 15:55:00,
2013-03-09 11:00:00,66.7,49.5,30.28,ESE,114,5.0,7.0,54,0.00,,,0.00,Wunderground v.1.15,2013-03-09 16:00:00,
2013-03-09 11:05:00,66.8,50.1,30.28,SE,129,1.0,8.0,55,0.00,,,0.00,Wunderground v.1.15,2013-03-09 16:05:00,
2013-03-09 11:10:00,66.5,48.8,30.28,SE,125,5.0,7.0,53,0.00,,,0.00,Wunderground v.1.15,2013-03-09 16:10:00,
2013-03-09 11:15:00,65.9,49.3,30.28,East,91,2.0,8.0,55,0.00,,,0.00,Wunderground v.1.15,2013-03-09 16:15:00,
2013-03-09 11:20:00,66.7,51.0,30.28,ENE,74,0.0,4.0,57,0.00,,,0.00,Wunderground v.1.15,2013-03-09 16:20:00,
2013-03-09 11:25:00,66.8,50.6,30.28,NE,39,0.0,8.0,56,0.00,,,0.00,Wunderground v.1.15,2013-03-09 16:25:00,
2013-03-09 11:30:00,67.4,50.7,30.28,SSW,210,0.0,1.0,55,0.00,,,0.00,Wunderground v.1.15,2013-03-09 16:30:00,
2013-03-09 11:35:00,67.8,49.5,30.28,WNW,301,2.0,5.0,52,0.00,,,0.00,Wunderground v.1.15,2013-03-09 16:35:00,
2013-03-09 11:40:00,67.1,49.4,30.28,SSW,204,0.0,3.0,53,0.00,,,0.00,Wunderground v.1.15,2013-03-09 16:40:00,
2013-03-09 11:45:00,67.1,48.9,30.28,ENE,77,2.0,5.0,52,0.00,,,0.00,Wunderground v.1.15,2013-03-09 16:45:00,
2013-03-09 11:50:00,66.9,49.2,30.28,East,98,0.0,4.0,53,0.00,,,0.00,Wunderground v.1.15,2013-03-09 16:50:00,
2013-03-09 11:56:00,67.4,49.7,30.28,SE,129,2.0,4.0,53,0.00,,,0.00,Wunderground v.1.15,2013-03-09 16:56:00,
2013-03-09 12:01:00,67.2,48.5,30.27,SSE,154,3.0,5.0,51,0.00,,,0.00,Wunderground v.1.15,2013-03-09 17:01:00,
2013-03-09 12:06:00,67.5,50.3,30.27,SE,133,1.0,6.0,54,0.00,,,0.00,Wunderground v.1.15,2013-03-09 17:06:00,
2013-03-09 12:11:00,68.2,49.9,30.27,ENE,70,2.0,2.0,52,0.00,,,0.00,Wunderground v.1.15,2013-03-09 17:11:00,
2013-03-09 12:16:00,67.2,48.5,30.27,SE,126,7.0,7.0,51,0.00,,,0.00,Wunderground v.1.15,2013-03-09 17:16:00,
2013-03-09 12:21:00,66.5,49.8,30.27,ESE,116,2.0,4.0,55,0.00,,,0.00,Wunderground v.1.15,2013-03-09 17:21:00,
2013-03-09 12:26:00,66.2,48.0,30.27,SSW,201,2.0,4.0,52,0.00,,,0.00,Wunderground v.1.15,2013-03-09 17:26:00,
2013-03-09 12:32:00,66.5,48.8,30.27,ENE,71,2.0,2.0,53,0.00,,,0.00,Wunderground v.1.15,2013-03-09 17:32:00,
2013-03-09 12:37:00,66.4,48.2,30.27,East,101,2.0,5.0,52,0.00,,,0.00,Wunderground v.1.15,2013-03-09 17:37:00,
2013-03-09 12:43:00,65.5,47.9,30.26,ESE,104,3.0,5.0,53,0.00,,,0.00,Wunderground v.1.15,2013-03-09 17:43:00,
2013-03-09 12:54:00,66.0,50.0,30.26,West,263,0.0,-999.0,57,-99.99,,,0.00,weatherlink.com 1.10,2013-03-09 17:54:00,
2013-03-09 13:09:00,65.8,50.0,30.25,ESE,105,0.0,-999.0,57,-99.99,,,0.00,weatherlink.com 1.10,2013-03-09 18:09:00,
2013-03-09 13:28:00,63.9,50.0,30.25,West,259,2.0,-999.0,61,-99.99,,,0.00,weatherlink.com 1.10,2013-03-09 18:28:00,
2013-03-09 13:39:00,64.6,51.0,30.24,SSE,160,0.0,-999.0,61,-99.99,,,0.00,weatherlink.com 1.10,2013-03-09 18:39:00,
2013-03-09 13:54:00,64.2,51.0,30.24,SW,230,3.0,-999.0,63,-99.99,,,0.00,weatherlink.com 1.10,2013-03-09 18:54:00,
2013-03-09 14:09:00,63.5,51.0,30.24,SSW,205,0.0,-999.0,63,-99.99,,,0.00,weatherlink.com 1.10,2013-03-09 19:09:00,
2013-03-09 14:28:00,63.5,50.0,30.24,NW,309,0.0,-999.0,62,-99.99,,,0.00,weatherlink.com 1.10,2013-03-09 19:28:00,
2013-03-09 14:39:00,63.1,51.0,30.23,WNW,302,0.0,-999.0,66,-99.99,,,0.00,weatherlink.com 1.10,2013-03-09 19:39:00,
2013-03-09 14:54:00,62.0,51.0,30.23,WNW,287,3.0,-999.0,68,-99.99,,,0.00,weatherlink.com 1.10,2013-03-09 19:54:00,
2013-03-09 15:09:00,61.6,51.0,30.23,SSW,192,0.0,-999.0,68,-99.99,,,0.00,weatherlink.com 1.10,2013-03-09 20:09:00,
2013-03-09 15:28:00,60.9,51.0,30.23,ESE,111,3.0,-999.0,70,-99.99,,,0.00,weatherlink.com 1.10,2013-03-09 20:28:00,
2013-03-09 15:39:00,60.7,51.0,30.22,West,271,0.0,-999.0,71,-99.99,,,0.00,weatherlink.com 1.10,2013-03-09 20:39:00,
2013-03-09 15:54:00,60.5,51.0,30.22,SE,145,0.0,-999.0,71,-99.99,,,0.00,weatherlink.com 1.10,2013-03-09 20:54:00,
2013-03-09 16:09:00,60.5,51.0,30.22,East,94,0.0,-999.0,71,-99.99,,,0.00,weatherlink.com 1.10,2013-03-09 21:09:00,
2013-03-09 16:29:00,60.4,51.0,30.22,East,94,0.0,-999.0,72,-99.99,,,0.00,weatherlink.com 1.10,2013-03-09 21:29:00,
2013-03-09 16:40:00,60.0,51.0,30.23,SE,138,7.0,-999.0,73,-99.99,,,0.00,weatherlink.com 1.10,2013-03-09 21:40:00,
2013-03-09 16:55:00,59.8,52.0,30.23,WNW,287,0.0,-999.0,74,-99.99,,,0.00,weatherlink.com 1.10,2013-03-09 21:55:00,
2013-03-09 17:10:00,59.8,52.0,30.23,South,191,0.0,-999.0,74,-99.99,,,0.00,weatherlink.com 1.10,2013-03-09 22:10:00,
2013-03-09 17:28:00,59.3,51.0,30.23,NW,305,0.0,-999.0,73,-99.99,,,0.00,weatherlink.com 1.10,2013-03-09 22:28:00,
2013-03-09 17:39:00,58.9,50.0,30.23,ESE,113,0.0,-999.0,72,-99.99,,,0.00,weatherlink.com 1.10,2013-03-09 22:39:00,
2013-03-09 17:54:00,58.5,50.0,30.23,East,98,0.0,-999.0,73,-99.99,,,0.00,weatherlink.com 1.10,2013-03-09 22:54:00,
2013-03-09 18:09:00,58.0,49.0,30.23,SSE,165,0.0,-999.0,72,-99.99,,,0.00,weatherlink.com 1.10,2013-03-09 23:09:00,
2013-03-09 18:29:00,57.3,49.0,30.24,SSW,209,0.0,-999.0,73,-99.99,,,0.00,weatherlink.com 1.10,2013-03-09 23:29:00,
2013-03-09 18:40:00,56.5,49.0,30.24,East,101,0.0,-999.0,76,-99.99,,,0.00,weatherlink.com 1.10,2013-03-09 23:40:00,
2013-03-09 18:55:00,55.7,49.0,30.24,East,101,0.0,-999.0,77,-99.99,,,0.00,weatherlink.com 1.10,2013-03-09 23:55:00,
2013-03-09 19:10:00,55.2,48.0,30.24,SSW,206,0.0,-999.0,77,-99.99,,,0.00,weatherlink.com 1.10,2013-03-10 00:10:00,
2013-03-09 19:29:00,54.9,48.0,30.23,SSW,207,0.0,-999.0,78,-99.99,,,0.00,weatherlink.com 1.10,2013-03-10 00:29:00,
2013-03-09 19:40:00,55.0,48.0,30.23,SSW,207,0.0,-999.0,77,-99.99,,,0.00,weatherlink.com 1.10,2013-03-10 00:40:00,
2013-03-09 19:55:00,54.7,48.0,30.24,SSW,207,0.0,-999.0,77,-99.99,,,0.00,weatherlink.com 1.10,2013-03-10 00:55:00,
2013-03-09 20:10:00,55.1,49.0,30.24,SW,219,0.0,-999.0,79,-99.99,,,0.00,weatherlink.com 1.10,2013-03-10 01:10:00,
2013-03-09 20:29:00,55.3,49.0,30.24,WSW,246,0.0,-999.0,80,-99.99,,,0.00,weatherlink.com 1.10,2013-03-10 01:29:00,
2013-03-09 20:39:00,55.1,49.0,30.24,South,182,0.0,-999.0,81,-99.99,,,0.00,weatherlink.com 1.10,2013-03-10 01:39:00,
2013-03-09 20:54:00,55.3,50.0,30.24,WSW,240,0.0,-999.0,82,-99.99,,,0.00,weatherlink.com 1.10,2013-03-10 01:54:00,
2013-03-09 21:09:00,55.0,50.0,30.25,WSW,238,0.0,-999.0,84,-99.99,,,0.00,weatherlink.com 1.10,2013-03-10 02:09:00,
2013-03-09 21:24:00,54.9,50.0,30.25,SE,139,0.0,-999.0,82,-99.99,,,0.00,weatherlink.com 1.10,2013-03-10 02:24:00,
2013-03-09 21:39:00,55.0,50.0,30.24,SSE,168,0.0,-999.0,82,-99.99,,,0.00,weatherlink.com 1.10,2013-03-10 02:39:00,
2013-03-09 21:54:00,55.1,50.0,30.23,SSW,207,0.0,-999.0,82,-99.99,,,0.00,weatherlink.com 1.10,2013-03-10 02:54:00,
2013-03-09 22:09:00,55.6,51.0,30.23,SW,215,0.0,-999.0,83,-99.99,,,0.00,weatherlink.com 1.10,2013-03-10 03:09:00,
2013-03-09 22:24:00,55.7,51.0,30.23,SW,231,0.0,-999.0,83,-99.99,,,0.00,weatherlink.com 1.10,2013-03-10 03:24:00,
2013-03-09 22:39:00,55.6,51.0,30.23,SE,141,0.0,-999.0,85,-99.99,,,0.00,weatherlink.com 1.10,2013-03-10 03:39:00,
2013-03-09 22:54:00,55.8,52.0,30.23,ESE,113,0.0,-999.0,86,-99.99,,,0.00,weatherlink.com 1.10,2013-03-10 03:54:00,
2013-03-09 23:09:00,55.8,52.0,30.24,WSW,254,0.0,-999.0,86,-99.99,,,0.00,weatherlink.com 1.10,2013-03-10 04:09:00,
2013-03-09 23:24:00,55.1,51.0,30.23,WSW,254,0.0,-999.0,87,-99.99,,,0.00,weatherlink.com 1.10,2013-03-10 04:24:00,
2013-03-09 23:39:00,54.6,52.0,30.22,WSW,254,0.0,-999.0,89,-99.99,,,0.00,weatherlink.com 1.10,2013-03-10 04:39:00,
2013-03-09 23:54:00,54.3,52.0,30.21,WSW,254,0.0,-999.0,90,-99.99,,,0.00,weatherlink.com 1.10,2013-03-10 04:54:00,